Time,TemperatureF,DewpointF,PressureIn,WindDirection,WindDirectionDegrees,WindSpeedMPH,WindSpeedGustMPH,Humidity,HourlyPrecipIn,Conditions,Clouds,dailyrainin,SoftwareType,DateUTC
2013-11-05 00:01:00,51.1,38.5,30.41,South,187,1.0,6.0,62,0.00,CLR,,0.00,WeatherDisplay:10.37,2013-11-05 05:01:00,
2013-11-05 00:10:00,51.0,38.4,30.41,South,188,1.0,6.0,62,0.00,CLR,,0.00,WeatherDisplay:10.37,2013-11-05 05:10:00,
2013-11-05 00:20:00,50.9,38.3,30.41,SSW,204,1.0,5.0,62,0.00,CLR,,0.00,WeatherDisplay:10.37,2013-11-05 05:20:00,
2013-11-05 00:31:00,50.8,38.3,30.42,South,174,2.0,8.0,62,0.00,CLR,,0.00,WeatherDisplay:10.37,2013-11-05 05:31:00,
2013-11-05 00:40:00,50.8,38.2,30.42,South,177,1.0,7.0,62,0.00,CLR,,0.00,WeatherDisplay:10.37,2013-11-05 05:40:00,
2013-11-05 00:50:00,50.8,38.2,30.41,SSW,195,1.0,6.0,62,0.00,CLR,,0.00,WeatherDisplay:10.37,2013-11-05 05:50:00,
2013-11-05 01:01:00,50.7,38.1,30.42,SSW,199,2.0,7.0,62,0.00,CLR,,0.00,WeatherDisplay:10.37,2013-11-05 06:01:00,
2013-11-05 01:10:00,50.6,38.1,30.41,South,173,2.0,6.0,62,0.00,CLR,,0.00,WeatherDisplay:10.37,2013-11-05 06:10:00,
2013-11-05 01:20:00,50.6,38.5,30.42,SW,218,0.0,6.0,63,0.00,CLR,,0.00,WeatherDisplay:10.37,2013-11-05 06:20:00,
2013-11-05 01:31:00,50.4,38.3,30.42,SSW,195,0.0,4.0,63,0.00,CLR,,0.00,WeatherDisplay:10.37,2013-11-05 06:31:00,
2013-11-05 01:40:00,50.1,38.8,30.42,SW,216,1.0,4.0,65,0.00,CLR,,0.00,WeatherDisplay:10.37,2013-11-05 06:40:00,
2013-11-05 01:50:00,49.9,38.6,30.42,WSW,252,0.0,4.0,65,0.00,CLR,,0.00,WeatherDisplay:10.37,2013-11-05 06:50:00,
2013-11-05 02:01:00,49.7,38.4,30.42,WSW,247,0.0,3.0,65,0.00,CLR,,0.00,WeatherDisplay:10.37,2013-11-05 07:01:00,
2013-11-05 02:10:00,49.6,38.7,30.42,WSW,246,0.0,3.0,66,0.00,CLR,,0.00,WeatherDisplay:10.37,2013-11-05 07:10:00,
2013-11-05 02:20:00,49.5,38.2,30.42,WSW,246,0.0,2.0,65,0.00,CLR,,0.00,WeatherDisplay:10.37,2013-11-05 07:20:00,
2013-11-05 02:31:00,49.5,38.2,30.42,WSW,243,1.0,3.0,65,0.00,CLR,,0.00,WeatherDisplay:10.37,2013-11-05 07:31:00,
2013-11-05 02:40:00,49.5,38.2,30.42,WSW,240,0.0,8.0,65,0.00,CLR,,0.00,WeatherDisplay:10.37,2013-11-05 07:40:00,
2013-11-05 02:50:00,49.5,38.2,30.42,WSW,243,1.0,4.0,65,0.00,CLR,,0.00,WeatherDisplay:10.37,2013-11-05 07:50:00,
2013-11-05 03:01:00,49.4,39.7,30.42,WSW,243,0.0,2.0,69,0.00,CLR,,0.00,WeatherDisplay:10.37,2013-11-05 08:01:00,
2013-11-05 03:10:00,48.5,39.2,30.42,WSW,243,0.0,0.0,70,0.00,CLR,,0.00,WeatherDisplay:10.37,2013-11-05 08:10:00,
2013-11-05 03:20:00,48.0,37.9,30.42,WSW,243,0.0,1.0,68,0.00,CLR,,0.00,WeatherDisplay:10.37,2013-11-05 08:20:00,
2013-11-05 03:31:00,48.2,38.5,30.42,WSW,243,0.0,3.0,69,0.00,CLR,,0.00,WeatherDisplay:10.37,2013-11-05 08:31:00,
2013-11-05 03:40:00,48.4,38.3,30.42,WSW,243,0.0,2.0,68,0.00,CLR,,0.00,WeatherDisplay:10.37,2013-11-05 08:40:00,
2013-11-05 03:50:00,48.8,37.6,30.42,WSW,243,1.0,3.0,65,0.00,CLR,,0.00,WeatherDisplay:10.37,2013-11-05 08:50:00,
2013-11-05 04:01:00,49.1,37.8,30.41,WSW,243,0.0,3.0,65,0.00,CLR,,0.00,WeatherDisplay:10.37,2013-11-05 09:01:00,
2013-11-05 04:10:00,49.1,37.8,30.41,WSW,251,1.0,5.0,65,0.00,CLR,,0.00,WeatherDisplay:10.37,2013-11-05 09:10:00,
2013-11-05 04:20:00,49.1,37.4,30.41,WSW,250,2.0,5.0,64,0.00,CLR,,0.00,WeatherDisplay:10.37,2013-11-05 09:20:00,
2013-11-05 04:31:00,49.3,37.2,30.42,WSW,241,1.0,4.0,63,0.00,CLR,,0.00,WeatherDisplay:10.37,2013-11-05 09:31:00,
2013-11-05 04:40:00,49.4,37.3,30.42,WSW,251,3.0,5.0,63,0.00,CLR,,0.00,WeatherDisplay:10.37,2013-11-05 09:40:00,
2013-11-05 04:50:00,49.4,37.3,30.42,SW,235,0.0,6.0,63,0.00,CLR,,0.00,WeatherDisplay:10.37,2013-11-05 09:50:00,
2013-11-05 05:01:00,49.2,37.5,30.42,WSW,252,1.0,3.0,64,0.00,CLR,,0.00,WeatherDisplay:10.37,2013-11-05 10:01:00,
2013-11-05 05:10:00,49.0,37.4,30.42,WSW,252,0.0,3.0,64,0.00,CLR,,0.00,WeatherDisplay:10.37,2013-11-05 10:10:00,
2013-11-05 05:20:00,48.9,37.6,30.41,WSW,252,1.0,3.0,65,0.00,CLR,,0.00,WeatherDisplay:10.37,2013-11-05 10:20:00,
2013-11-05 05:31:00,48.7,37.5,30.41,WSW,252,0.0,1.0,65,0.00,CLR,,0.00,WeatherDisplay:10.37,2013-11-05 10:31:00,
2013-11-05 05:40:00,48.5,37.3,30.41,WSW,252,0.0,1.0,65,0.00,CLR,,0.00,WeatherDisplay:10.37,2013-11-05 10:40:00,
2013-11-05 05:50:00,48.3,37.5,30.42,WSW,252,0.0,1.0,66,0.00,CLR,,0.00,WeatherDisplay:10.37,2013-11-05 10:50:00,
2013-11-05 06:01:00,48.1,37.3,30.42,SW,234,2.0,3.0,66,0.00,CLR,,0.00,WeatherDisplay:10.37,2013-11-05 11:01:00,
2013-11-05 06:10:00,47.8,37.7,30.42,SW,225,0.0,2.0,68,0.00,CLR,,0.00,WeatherDisplay:10.37,2013-11-05 11:10:00,
2013-11-05 06:20:00,47.1,38.6,30.42,SW,225,0.0,0.0,72,0.00,CLR,,0.00,WeatherDisplay:10.37,2013-11-05 11:20:00,
2013-11-05 06:31:00,46.3,38.1,30.43,SW,225,0.0,0.0,73,0.00,CLR,,0.00,WeatherDisplay:10.37,2013-11-05 11:31:00,
2013-11-05 06:40:00,45.3,37.8,30.43,SW,225,0.0,0.0,75,0.00,CLR,,0.00,WeatherDisplay:10.37,2013-11-05 11:40:00,
2013-11-05 06:50:00,44.5,37.7,30.43,SW,225,0.0,0.0,77,0.00,CLR,,0.00,WeatherDisplay:10.37,2013-11-05 11:50:00,
2013-11-05 07:01:00,43.8,37.4,30.43,SW,225,0.0,0.0,78,0.00,CLR,,0.00,WeatherDisplay:10.37,2013-11-05 12:01:00,
2013-11-05 07:10:00,43.2,37.4,30.43,SW,225,0.0,0.0,80,0.00,CLR,,0.00,WeatherDisplay:10.37,2013-11-05 12:10:00,
2013-11-05 07:20:00,42.9,37.5,30.43,SW,225,0.0,0.0,81,0.00,CLR,,0.00,WeatherDisplay:10.37,2013-11-05 12:20:00,
2013-11-05 07:31:00,42.8,37.7,30.43,SW,225,0.0,0.0,82,0.00,CLR,,0.00,WeatherDisplay:10.37,2013-11-05 12:31:00,
2013-11-05 07:40:00,43.0,37.9,30.43,SW,225,0.0,1.0,82,0.00,CLR,,0.00,WeatherDisplay:10.37,2013-11-05 12:40:00,
2013-11-05 07:50:00,43.5,38.1,30.44,SW,225,0.0,1.0,81,0.00,CLR,,0.00,WeatherDisplay:10.37,2013-11-05 12:50:00,
2013-11-05 08:01:00,44.5,39.0,30.44,SW,225,0.0,0.0,81,0.00,CLR,,0.00,WeatherDisplay:10.37,2013-11-05 13:01:00,
2013-11-05 08:10:00,45.8,38.7,30.44,SW,225,0.0,2.0,76,0.00,CLR,,0.00,WeatherDisplay:10.37,2013-11-05 13:10:00,
2013-11-05 08:20:00,48.1,38.8,30.45,SW,225,0.0,2.0,70,0.00,CLR,,0.00,WeatherDisplay:10.37,2013-11-05 13:20:00,
2013-11-05 08:31:00,50.0,39.0,30.45,SW,224,0.0,3.0,66,0.00,CLR,,0.00,WeatherDisplay:10.37,2013-11-05 13:31:00,
2013-11-05 08:40:00,50.9,38.3,30.45,South,171,1.0,4.0,62,0.00,CLR,,0.00,WeatherDisplay:10.37,2013-11-05 13:40:00,
2013-11-05 08:50:00,51.6,38.2,30.46,SSW,205,2.0,6.0,60,0.00,CLR,,0.00,WeatherDisplay:10.37,2013-11-05 13:50:00,
2013-11-05 09:01:00,51.9,37.1,30.46,SSW,207,5.0,8.0,57,0.00,CLR,,0.00,WeatherDisplay:10.37,2013-11-05 14:01:00,
2013-11-05 09:10:00,51.7,36.9,30.46,SSW,192,5.0,9.0,57,0.00,CLR,,0.00,WeatherDisplay:10.37,2013-11-05 14:10:00,
2013-11-05 09:20:00,52.7,37.9,30.46,SSW,202,3.0,12.0,57,0.00,CLR,,0.00,WeatherDisplay:10.37,2013-11-05 14:20:00,
2013-11-05 09:31:00,52.5,37.2,30.46,SSW,198,3.0,12.0,56,0.00,CLR,,0.00,WeatherDisplay:10.37,2013-11-05 14:31:00,
2013-11-05 09:40:00,52.8,37.5,30.46,South,180,5.0,8.0,56,0.00,CLR,,0.00,WeatherDisplay:10.37,2013-11-05 14:40:00,
2013-11-05 09:50:00,53.2,37.5,30.46,SSE,168,1.0,7.0,55,0.00,CLR,,0.00,WeatherDisplay:10.37,2013-11-05 14:50:00,
2013-11-05 10:01:00,53.7,37.4,30.46,SSW,206,3.0,8.0,54,0.00,CLR,,0.00,WeatherDisplay:10.37,2013-11-05 15:01:00,
2013-11-05 10:10:00,53.7,37.9,30.45,SW,223,3.0,7.0,55,0.00,SCT,,0.00,WeatherDisplay:10.37,2013-11-05 15:10:00,
2013-11-05 10:20:00,53.4,38.1,30.45,SSE,160,2.0,8.0,56,0.00,SCT,,0.00,WeatherDisplay:10.37,2013-11-05 15:20:00,
2013-11-05 10:31:00,53.1,37.4,30.46,SSW,210,3.0,7.0,55,0.00,SCT,,0.00,WeatherDisplay:10.37,2013-11-05 15:31:00,
2013-11-05 10:40:00,53.2,38.4,30.45,SSE,151,1.0,5.0,57,0.00,OVC,,0.00,WeatherDisplay:10.37,2013-11-05 15:40:00,
2013-11-05 10:50:00,53.6,37.8,30.45,SSE,153,1.0,7.0,55,0.00,OVC,,0.00,WeatherDisplay:10.37,2013-11-05 15:50:00,
2013-11-05 11:01:00,53.9,38.1,30.45,South,172,3.0,6.0,55,0.00,OVC,,0.00,WeatherDisplay:10.37,2013-11-05 16:01:00,
2013-11-05 11:10:00,54.1,38.7,30.45,South,180,1.0,5.0,56,0.00,OVC,,0.00,WeatherDisplay:10.37,2013-11-05 16:10:00,
2013-11-05 11:20:00,54.8,39.4,30.44,SE,144,0.0,6.0,56,0.00,OVC,,0.00,WeatherDisplay:10.37,2013-11-05 16:20:00,
2013-11-05 11:31:00,55.8,39.4,30.44,SSW,196,0.0,5.0,54,0.00,OVC,,0.00,WeatherDisplay:10.37,2013-11-05 16:31:00,
2013-11-05 11:40:00,56.4,39.0,30.44,South,184,0.0,7.0,52,0.00,OVC,,0.00,WeatherDisplay:10.37,2013-11-05 16:40:00,
2013-11-05 11:50:00,57.2,39.7,30.44,South,186,0.0,6.0,52,0.00,OVC,,0.00,WeatherDisplay:10.37,2013-11-05 16:50:00,
2013-11-05 12:01:00,58.0,39.9,30.44,WSW,238,1.0,8.0,51,0.00,OVC,,0.00,WeatherDisplay:10.37,2013-11-05 17:01:00,
2013-11-05 12:10:00,58.6,39.5,30.43,SW,221,3.0,6.0,49,0.00,BKN,,0.00,WeatherDisplay:10.37,2013-11-05 17:10:00,
2013-11-05 12:20:00,59.0,39.8,30.43,SW,219,0.0,6.0,49,0.00,BKN,,0.00,WeatherDisplay:10.37,2013-11-05 17:20:00,
2013-11-05 12:31:00,59.0,39.3,30.43,SE,124,5.0,7.0,48,0.00,BKN,,0.00,WeatherDisplay:10.37,2013-11-05 17:31:00,
2013-11-05 12:40:00,60.4,39.5,30.42,South,184,3.0,7.0,46,0.00,BKN,,0.00,WeatherDisplay:10.37,2013-11-05 17:40:00,
2013-11-05 12:50:00,60.7,40.3,30.41,SE,134,0.0,6.0,47,0.00,BKN,,0.00,WeatherDisplay:10.37,2013-11-05 17:50:00,
2013-11-05 13:01:00,61.4,40.4,30.40,SW,232,2.0,7.0,46,0.00,BKN,,0.00,WeatherDisplay:10.37,2013-11-05 18:01:00,
2013-11-05 13:10:00,61.4,40.5,30.40,WSW,245,2.0,6.0,46,0.00,SCT,,0.00,WeatherDisplay:10.37,2013-11-05 18:10:00,
2013-11-05 13:20:00,61.7,40.7,30.39,SW,220,5.0,8.0,46,0.00,SCT,,0.00,WeatherDisplay:10.37,2013-11-05 18:20:00,
2013-11-05 13:31:00,62.7,40.5,30.39,SSW,205,2.0,8.0,44,0.00,SCT,,0.00,WeatherDisplay:10.37,2013-11-05 18:31:00,
2013-11-05 13:40:00,62.8,41.1,30.38,SSE,153,0.0,5.0,45,0.00,SCT,,0.00,WeatherDisplay:10.37,2013-11-05 18:40:00,
2013-11-05 13:50:00,62.6,40.9,30.38,SW,224,1.0,6.0,45,0.00,BKN,,0.00,WeatherDisplay:10.37,2013-11-05 18:50:00,
2013-11-05 14:01:00,63.1,41.4,30.38,SSE,153,0.0,4.0,45,0.00,BKN,,0.00,WeatherDisplay:10.37,2013-11-05 19:01:00,
2013-11-05 14:10:00,63.3,41.0,30.37,SW,226,2.0,5.0,44,0.00,SCT,,0.00,WeatherDisplay:10.37,2013-11-05 19:10:00,
2013-11-05 14:20:00,63.2,40.9,30.37,SW,233,0.0,5.0,44,0.00,SCT,,0.00,WeatherDisplay:10.37,2013-11-05 19:20:00,
2013-11-05 14:31:00,63.6,41.3,30.35,SSE,155,0.0,7.0,44,0.00,SCT,,0.00,WeatherDisplay:10.37,2013-11-05 19:31:00,
2013-11-05 14:40:00,64.3,41.3,30.35,SSW,209,5.0,8.0,43,0.00,BKN,,0.00,WeatherDisplay:10.37,2013-11-05 19:40:00,
2013-11-05 14:50:00,64.6,42.7,30.35,SSW,200,0.0,6.0,45,0.00,OVC,,0.00,WeatherDisplay:10.37,2013-11-05 19:50:00,
2013-11-05 15:01:00,65.1,42.6,30.35,SE,141,1.0,4.0,44,0.00,OVC,,0.00,WeatherDisplay:10.37,2013-11-05 20:01:00,
2013-11-05 15:10:00,65.2,41.5,30.34,SSE,165,0.0,6.0,42,0.00,OVC,,0.00,WeatherDisplay:10.37,2013-11-05 20:10:00,
2013-11-05 15:20:00,65.6,41.3,30.33,SSW,199,2.0,7.0,41,0.00,OVC,,0.00,WeatherDisplay:10.37,2013-11-05 20:20:00,
2013-11-05 15:31:00,65.4,41.7,30.34,SSW,195,0.0,5.0,42,0.00,OVC,,0.00,WeatherDisplay:10.37,2013-11-05 20:31:00,
2013-11-05 15:40:00,65.5,41.2,30.33,South,187,3.0,5.0,41,0.00,OVC,,0.00,WeatherDisplay:10.37,2013-11-05 20:40:00,
2013-11-05 15:50:00,65.6,42.5,30.33,ESE,116,0.0,5.0,43,0.00,OVC,,0.00,WeatherDisplay:10.37,2013-11-05 20:50:00,
2013-11-05 16:01:00,66.7,42.2,30.32,WSW,241,2.0,5.0,41,0.00,OVC,,0.00,WeatherDisplay:10.37,2013-11-05 21:01:00,
2013-11-05 16:10:00,66.9,43.0,30.32,SSW,197,0.0,5.0,42,0.00,OVC,,0.00,WeatherDisplay:10.37,2013-11-05 21:10:00,
2013-11-05 16:20:00,66.6,42.8,30.32,SW,231,1.0,4.0,42,0.00,OVC,,0.00,WeatherDisplay:10.37,2013-11-05 21:20:00,
2013-11-05 16:31:00,66.1,45.3,30.32,South,175,1.0,4.0,47,0.00,OVC,,0.00,WeatherDisplay:10.37,2013-11-05 21:31:00,
2013-11-05 16:50:00,64.4,44.8,30.32,WSW,257,1.0,3.0,49,0.00,OVC,,0.00,WeatherDisplay:10.37,2013-11-05 21:50:00,
2013-11-05 17:01:00,64.2,44.6,30.31,WSW,257,0.0,3.0,49,0.00,OVC,,0.00,WeatherDisplay:10.37,2013-11-05 22:01:00,
2013-11-05 17:10:00,64.1,45.1,30.32,WSW,257,1.0,2.0,50,0.00,OVC,,0.00,WeatherDisplay:10.37,2013-11-05 22:10:00,
2013-11-05 17:20:00,63.7,44.7,30.31,WSW,253,1.0,5.0,50,0.00,OVC,,0.00,WeatherDisplay:10.37,2013-11-05 22:20:00,
2013-11-05 17:31:00,63.4,44.4,30.32,WSW,253,0.0,2.0,50,0.00,OVC,,0.00,WeatherDisplay:10.37,2013-11-05 22:31:00,
2013-11-05 17:40:00,62.9,44.5,30.32,WSW,253,0.0,3.0,51,0.00,BKN,,0.00,WeatherDisplay:10.37,2013-11-05 22:40:00,
2013-11-05 17:50:00,62.2,43.8,30.32,WSW,253,0.0,1.0,51,0.00,CLR,,0.00,WeatherDisplay:10.37,2013-11-05 22:50:00,
2013-11-05 18:01:00,61.3,45.5,30.32,WSW,253,0.0,1.0,56,0.00,CLR,,0.00,WeatherDisplay:10.37,2013-11-05 23:01:00,
2013-11-05 18:10:00,60.1,43.9,30.32,WSW,253,0.0,0.0,55,0.00,CLR,,0.00,WeatherDisplay:10.37,2013-11-05 23:10:00,
2013-11-05 18:20:00,59.4,43.7,30.32,WSW,253,0.0,0.0,56,0.00,CLR,,0.00,WeatherDisplay:10.37,2013-11-05 23:20:00,
2013-11-05 18:31:00,58.8,45.0,30.32,WSW,253,0.0,0.0,60,0.00,CLR,,0.00,WeatherDisplay:10.37,2013-11-05 23:31:00,
2013-11-05 18:40:00,58.0,44.2,30.33,WSW,253,0.0,0.0,60,0.00,CLR,,0.00,WeatherDisplay:10.37,2013-11-05 23:40:00,
2013-11-05 18:50:00,57.4,44.5,30.33,WSW,253,0.0,0.0,62,0.00,CLR,,0.00,WeatherDisplay:10.37,2013-11-05 23:50:00,
2013-11-05 19:01:00,56.8,44.8,30.33,WSW,253,0.0,0.0,64,0.00,CLR,,0.00,WeatherDisplay:10.37,2013-11-06 00:01:00,
2013-11-05 19:10:00,56.5,44.8,30.33,WSW,253,0.0,0.0,65,0.00,BKN,,0.00,WeatherDisplay:10.37,2013-11-06 00:10:00,
2013-11-05 19:20:00,56.1,45.7,30.33,WSW,253,0.0,0.0,68,0.00,BKN,,0.00,WeatherDisplay:10.37,2013-11-06 00:20:00,
2013-11-05 19:31:00,55.6,45.5,30.33,WSW,253,0.0,0.0,69,0.00,BKN,,0.00,WeatherDisplay:10.37,2013-11-06 00:31:00,
2013-11-05 19:40:00,55.1,44.4,30.33,WSW,253,0.0,0.0,67,0.00,SCT,,0.00,WeatherDisplay:10.37,2013-11-06 00:40:00,
2013-11-05 19:50:00,54.9,45.3,30.33,WSW,253,0.0,0.0,70,0.00,CLR,,0.00,WeatherDisplay:10.37,2013-11-06 00:50:00,
2013-11-05 20:01:00,54.5,45.3,30.33,WSW,253,0.0,0.0,71,0.00,CLR,,0.00,WeatherDisplay:10.37,2013-11-06 01:01:00,
2013-11-05 20:10:00,54.0,45.2,30.33,WSW,253,0.0,0.0,72,0.00,CLR,,0.00,WeatherDisplay:10.37,2013-11-06 01:10:00,
2013-11-05 20:20:00,53.6,45.5,30.33,WSW,253,0.0,1.0,74,0.00,CLR,,0.00,WeatherDisplay:10.37,2013-11-06 01:20:00,
2013-11-05 20:31:00,53.7,41.8,30.33,WSW,247,1.0,4.0,64,0.00,CLR,,0.00,WeatherDisplay:10.37,2013-11-06 01:31:00,
2013-11-05 20:40:00,55.0,41.8,30.33,SW,232,1.0,3.0,61,0.00,CLR,,0.00,WeatherDisplay:10.37,2013-11-06 01:40:00,
2013-11-05 20:50:00,55.7,41.6,30.33,SW,232,0.0,2.0,59,0.00,CLR,,0.00,WeatherDisplay:10.37,2013-11-06 01:50:00,
2013-11-05 21:01:00,55.7,40.7,30.33,SW,232,1.0,4.0,57,0.00,CLR,,0.00,WeatherDisplay:10.37,2013-11-06 02:01:00,
2013-11-05 21:10:00,55.9,39.5,30.34,SW,233,0.0,3.0,54,0.00,CLR,,0.00,WeatherDisplay:10.37,2013-11-06 02:10:00,
2013-11-05 21:20:00,55.9,39.0,30.34,SW,233,0.0,3.0,53,0.00,CLR,,0.00,WeatherDisplay:10.37,2013-11-06 02:20:00,
2013-11-05 21:31:00,55.7,38.8,30.34,SW,224,0.0,6.0,53,0.00,CLR,,0.00,WeatherDisplay:10.37,2013-11-06 02:31:00,
2013-11-05 21:40:00,55.5,37.1,30.34,SSW,212,1.0,3.0,50,0.00,BKN,,0.00,WeatherDisplay:10.37,2013-11-06 02:40:00,
2013-11-05 21:50:00,55.3,37.4,30.34,SSW,212,1.0,3.0,51,0.00,OVC,,0.00,WeatherDisplay:10.37,2013-11-06 02:50:00,
2013-11-05 22:01:00,55.0,37.2,30.34,WSW,239,2.0,4.0,51,0.00,OVC,,0.00,WeatherDisplay:10.37,2013-11-06 03:01:00,
2013-11-05 22:10:00,54.8,36.5,30.33,WSW,248,1.0,6.0,50,0.00,OVC,,0.00,WeatherDisplay:10.37,2013-11-06 03:10:00,
2013-11-05 22:20:00,54.9,36.1,30.33,WSW,242,2.0,6.0,49,0.00,OVC,,0.00,WeatherDisplay:10.37,2013-11-06 03:20:00,
2013-11-05 22:31:00,55.2,35.8,30.33,WSW,238,1.0,4.0,48,0.00,OVC,,0.00,WeatherDisplay:10.37,2013-11-06 03:31:00,
2013-11-05 22:40:00,55.5,35.6,30.33,WSW,246,3.0,7.0,47,0.00,OVC,,0.00,WeatherDisplay:10.37,2013-11-06 03:40:00,
2013-11-05 22:50:00,55.7,35.8,30.33,SW,221,0.0,5.0,47,0.00,BKN,,0.00,WeatherDisplay:10.37,2013-11-06 03:50:00,
2013-11-05 23:01:00,55.4,37.1,30.33,SW,221,0.0,0.0,50,0.00,BKN,,0.00,WeatherDisplay:10.37,2013-11-06 04:01:00,
2013-11-05 23:10:00,54.9,36.6,30.33,SW,225,1.0,4.0,50,0.00,SCT,,0.00,WeatherDisplay:10.37,2013-11-06 04:10:00,
2013-11-05 23:20:00,54.5,37.7,30.33,WSW,250,0.0,1.0,53,0.00,SCT,,0.00,WeatherDisplay:10.37,2013-11-06 04:20:00,
2013-11-05 23:31:00,54.2,37.4,30.32,WSW,252,0.0,1.0,53,0.00,SCT,,0.00,WeatherDisplay:10.37,2013-11-06 04:31:00,
2013-11-05 23:40:00,54.2,37.4,30.32,WSW,252,0.0,2.0,53,0.00,SCT,,0.00,WeatherDisplay:10.37,2013-11-06 04:40:00,
2013-11-05 23:50:00,54.2,37.9,30.32,WSW,252,0.0,1.0,54,0.00,OVC,,0.00,WeatherDisplay:10.37,2013-11-06 04:50:00,